Date String (YYYY-MM-DD hh:mm:ss) UTC,Instrument flags,absolute air pressure of the measurement (hPa),sample flow rate (lpm),inlet stack bypass flow (lpm),air temperature of the measurement (°C),ambient temperature measured by the external sensor (°C),aerosol sample conditioner tube jacket temperature (°C),OPC LED temperature (°C),internal box temperature (°C),relative humidity of the measurement (%),span deviation,mass concentration of particles derived from Lorenz-Mie calculation of OPC scattering (μg/m³),mass concentration of particles derived from Lorenz-Mie calculation of OPC scattering (μg/m³),mass concentration of particles derived from Lorenz-Mie calculation of OPC scattering (μg/m³)
DateTimeUTC,F1_M11,P_M11,Q1_M11,Q2_M11,T1_M11,T2_M11,T3_M11,T4_M11,T5_M11,U1_M11,ZSPAN_M11,X0_M11,X2_M11,X1_M11
2023-08-17 10:00:00,SystemResetWarning,0834.4,5.00,000.00,028.2,026.0,000.0,036.7,029.8,25.8,0003.3,0024.61,0016.74,0015.68
2023-08-17 10:01:00,SystemResetWarning,0834.5,5.00,000.00,028.2,026.3,000.0,036.7,029.9,25.8,0003.1,0024.91,0016.80,0015.69
2023-08-17 10:02:00,SystemResetWarning,0834.5,5.00,000.00,028.2,026.5,000.0,036.7,030.0,25.8,0003.0,0025.33,0016.79,0015.71
2023-08-17 10:03:00,SystemResetWarning,0834.5,4.99,000.00,028.3,026.8,000.0,036.7,030.0,25.8,0003.1,0026.18,0016.82,0015.70
2023-08-17 10:04:00,SystemResetWarning,0834.5,5.00,000.00,028.3,026.9,000.0,036.8,030.0,25.8,0003.1,0027.38,0016.85,0015.73
2023-08-17 10:05:00,SystemResetWarning,0834.5,5.01,000.00,028.4,027.1,000.0,036.8,030.1,25.8,0002.8,0026.91,0016.80,0015.69
2023-08-17 10:06:00,SystemResetWarning,0834.5,5.00,000.00,028.4,027.2,000.0,036.8,030.2,25.8,0002.5,0026.52,0016.79,0015.72
2023-08-17 10:07:00,SystemResetWarning,0834.5,4.98,000.00,028.4,026.2,000.0,036.7,030.0,26.0,0002.2,0025.92,0016.78,0015.70
2023-08-17 10:08:00,SystemResetWarning,0834.5,5.01,000.00,028.3,024.7,000.0,036.6,029.8,26.2,0001.7,0025.80,0016.75,0015.69
2023-08-17 10:09:00,SystemResetWarning,0834.5,5.01,000.00,028.3,024.6,000.0,036.6,029.6,26.6,0001.8,0025.35,0016.76,0015.68
2023-08-17 10:10:00,SystemResetWarning,0834.5,5.00,000.00,028.2,024.8,000.0,036.6,029.5,26.8,0002.3,0025.53,0016.76,0015.69
2023-08-17 10:11:00,SystemResetWarning,0834.5,5.00,000.00,028.1,025.2,000.0,036.6,029.6,26.9,0002.5,0025.99,0016.71,0015.67
2023-08-17 10:12:00,SystemResetWarning,0834.5,5.00,000.00,028.1,025.5,000.0,036.7,029.7,26.9,0002.5,0026.75,0016.70,0015.69
2023-08-17 10:13:00,SystemResetWarning,0835.1,4.99,000.00,028.2,025.9,000.0,036.7,029.8,26.9,0002.6,0027.07,0016.73,0015.68
2023-08-17 10:14:00,SystemResetWarning,0835.0,5.00,000.00,028.2,026.2,000.0,036.7,029.8,26.8,0002.4,0026.79,0016.71,0015.68
2023-08-17 10:15:00,SystemResetWarning,0834.7,5.00,000.00,028.2,026.4,000.0,036.7,029.9,26.8,0002.5,0025.87,0016.76,0015.67
2023-08-17 10:16:00,SystemResetWarning,0834.8,5.01,000.00,028.2,026.6,000.0,036.7,030.0,26.9,0002.7,0026.09,0016.76,0015.68
2023-08-17 10:17:00,SystemResetWarning,0835.2,5.01,000.00,028.3,026.8,000.0,036.7,030.0,27.0,0003.2,0025.82,0016.80,0015.69
2023-08-17 10:18:00,SystemResetWarning,0835.0,5.00,000.00,028.3,027.0,000.0,036.7,030.1,26.9,0003.3,0026.24,0016.78,0015.70
2023-08-17 10:19:00,SystemResetWarning,0834.9,4.99,000.00,028.3,027.1,000.0,036.8,030.1,26.8,0003.4,0026.22,0016.80,0015.69
2023-08-17 10:20:00,SystemResetWarning,0834.8,5.00,000.00,028.4,027.2,000.0,036.8,030.1,26.8,0003.4,0025.56,0016.79,0015.68
2023-08-17 10:21:00,SystemResetWarning,0834.7,4.99,000.00,028.4,025.9,000.0,036.7,030.0,26.7,0003.1,0026.01,0016.79,0015.65
2023-08-17 10:22:00,SystemResetWarning,0834.9,5.01,000.00,028.3,024.6,000.0,036.6,029.8,26.7,0003.1,0025.76,0016.81,0015.64
2023-08-17 10:23:00,SystemResetWarning,0834.7,5.01,000.00,028.2,024.5,000.0,036.6,029.6,26.8,0003.3,0025.38,0016.82,0015.64
2023-08-17 10:24:00,SystemResetWarning,0834.8,5.01,000.00,028.2,024.8,000.0,036.6,029.5,26.9,0003.3,0025.14,0016.84,0015.67
2023-08-17 10:25:00,SystemResetWarning,0834.7,5.00,000.00,028.1,025.2,000.0,036.6,029.6,26.9,0003.3,0024.97,0016.87,0015.71
2023-08-17 10:26:00,SystemResetWarning,0834.8,5.00,000.00,028.1,025.5,000.0,036.6,029.7,26.8,0003.6,0024.74,0016.88,0015.73
2023-08-17 10:27:00,SystemResetWarning,0835.0,5.00,000.00,028.1,025.9,000.0,036.7,029.8,26.9,0003.8,0024.68,0016.90,0015.73
2023-08-17 10:28:00,SystemResetWarning,0835.3,4.99,000.00,028.2,026.2,000.0,036.7,029.8,27.0,0003.7,0025.39,0016.94,0015.72
2023-08-17 10:29:00,SystemResetWarning,0835.4,4.99,000.00,028.2,026.4,000.0,036.7,029.9,27.1,0003.7,0025.14,0017.02,0015.73
2023-08-17 10:30:00,SystemResetWarning,0835.4,5.00,000.00,028.2,026.6,000.0,036.7,029.9,27.1,0003.8,0025.12,0017.06,0015.76
2023-08-17 10:31:00,SystemResetWarning,0835.1,5.01,000.00,028.2,026.8,000.0,036.7,030.0,27.2,0003.6,0025.79,0017.10,0015.81
2023-08-17 10:32:00,SystemResetWarning,0835.1,4.99,000.00,028.3,027.0,000.0,036.7,030.0,27.2,0003.5,0026.13,0017.16,0015.87
2023-08-17 10:33:00,SystemResetWarning,0834.8,4.99,000.00,028.3,027.1,000.0,036.7,030.1,27.2,0003.2,0025.92,0017.21,0015.94
2023-08-17 10:34:00,SystemResetWarning,0835.0,5.01,000.00,028.4,027.2,000.0,036.8,030.1,27.2,0003.0,0025.70,0017.29,0015.96
2023-08-17 10:35:00,SystemResetWarning,0834.8,5.01,000.00,028.4,027.2,000.0,036.8,030.1,27.1,0003.2,0025.42,0017.30,0015.97
2023-08-17 10:36:00,SystemResetWarning,0834.9,4.98,000.00,028.4,025.8,000.0,036.7,029.9,27.0,0003.1,0026.17,0017.40,0016.01
2023-08-17 10:37:00,SystemResetWarning,0835.3,5.01,000.00,028.3,024.6,000.0,036.6,029.7,26.8,0002.8,0027.04,0017.49,0016.10
2023-08-17 10:38:00,SystemResetWarning,0835.4,5.02,000.00,028.2,024.5,000.0,036.6,029.5,26.8,0002.4,0028.49,0017.50,0016.18
2023-08-17 10:39:00,SystemResetWarning,0835.2,5.00,000.00,028.1,024.8,000.0,036.6,029.4,27.0,0002.3,0028.53,0017.48,0016.25
2023-08-17 10:40:00,SystemResetWarning,0834.9,5.00,000.00,028.1,025.2,000.0,036.6,029.6,27.0,0002.0,0028.29,0017.49,0016.33
2023-08-17 10:41:00,SystemResetWarning,0835.0,5.01,000.00,028.1,025.5,000.0,036.6,029.7,27.1,0002.0,0028.01,0017.50,0016.38
2023-08-17 10:42:00,SystemResetWarning,0835.0,5.00,000.00,028.1,025.9,000.0,036.7,029.7,27.3,0002.2,0027.76,0017.59,0016.42
2023-08-17 10:43:00,SystemResetWarning,0835.1,4.99,000.00,028.1,026.2,000.0,036.7,029.8,27.4,0002.7,0027.15,0017.62,0016.46
2023-08-17 10:44:00,SystemResetWarning,0835.2,4.99,000.00,028.2,026.4,000.0,036.7,029.9,27.3,0003.0,0027.64,0017.74,0016.49
2023-08-17 10:45:00,SystemResetWarning,0835.1,5.00,000.00,028.2,026.6,000.0,036.7,029.9,27.3,0002.9,0028.24,0017.81,0016.57
2023-08-17 10:46:00,SystemResetWarning,0835.2,5.00,000.00,028.2,026.8,000.0,036.7,030.0,27.5,0002.7,0028.28,0017.87,0016.66
2023-08-17 10:47:00,SystemResetWarning,0835.2,5.00,000.00,028.3,026.9,000.0,036.7,030.0,27.5,0003.0,0027.82,0017.88,0016.69
2023-08-17 10:48:00,SystemResetWarning,0835.2,5.00,000.00,028.3,027.1,000.0,036.7,030.1,27.4,0002.9,0026.93,0017.82,0016.65
2023-08-17 10:49:00,SystemResetWarning,0835.3,5.00,000.00,028.4,027.2,000.0,036.8,030.1,27.6,0003.0,0026.29,0017.79,0016.62
2023-08-17 10:50:00,SystemResetWarning,0835.3,5.00,000.00,028.4,027.3,000.0,036.8,030.2,27.5,0002.8,0026.21,0017.79,0016.58
2023-08-17 10:51:00,SystemResetWarning,0835.3,4.99,000.00,028.4,026.7,000.0,036.8,030.1,27.5,0003.1,0026.15,0017.74,0016.54
2023-08-17 10:52:00,SystemResetWarning,0835.3,5.00,000.00,028.4,024.9,000.0,036.7,029.8,27.6,0003.3,0026.78,0017.79,0016.54
2023-08-17 10:53:00,SystemResetWarning,0835.3,5.01,000.00,028.3,024.4,000.0,036.6,029.7,27.7,0003.1,0028.12,0017.77,0016.52
2023-08-17 10:54:00,SystemResetWarning,0835.3,5.01,000.00,028.2,024.6,000.0,036.6,029.5,27.9,0003.2,0028.45,0017.77,0016.49
2023-08-17 10:55:00,SystemResetWarning,0835.3,5.00,000.00,028.1,025.0,000.0,036.6,029.6,28.0,0003.4,0028.62,0017.71,0016.46
2023-08-17 10:56:00,SystemResetWarning,0835.2,5.00,000.00,028.1,025.4,000.0,036.6,029.6,28.1,0003.6,0028.21,0017.67,0016.42
2023-08-17 10:57:00,SystemResetWarning,0835.2,5.00,000.00,028.1,025.7,000.0,036.7,029.7,28.1,0003.8,0028.31,0017.70,0016.36
2023-08-17 10:58:00,SystemResetWarning,0835.2,5.00,000.00,028.2,026.0,000.0,036.7,029.8,28.2,0003.7,0028.33,0017.71,0016.34
2023-08-17 10:59:00,SystemResetWarning,0835.3,5.00,000.00,028.2,026.3,000.0,036.7,029.9,28.1,0003.9,0029.17,0017.75,0016.34
